TimeCDT,TemperatureF,Dew PointF,Humidity,Sea Level PressureIn,VisibilityMPH,Wind Direction,Wind SpeedMPH,Gust SpeedMPH,PrecipitationIn,Events,Conditions,WindDirDegrees,DateUTC
12:55 AM,53.2,48.4,84,30.14,10.0,North,5.8,-,N/A,,Scattered Clouds,10,2012-10-05 05:55:00
1:55 AM,52.2,46.6,81,30.15,10.0,North,8.1,-,N/A,,Mostly Cloudy,360,2012-10-05 06:55:00
2:55 AM,51.6,44.8,77,30.17,10.0,North,9.2,-,N/A,,Overcast,360,2012-10-05 07:55:00
3:55 AM,50.5,43.3,76,30.15,10.0,NNE,9.2,-,N/A,,Overcast,20,2012-10-05 08:55:00
4:55 AM,50.0,43.9,79,30.16,10.0,North,8.1,-,N/A,,Overcast,10,2012-10-05 09:55:00
5:52 AM,50.0,44.6,82,30.16,10.0,NNE,6.9,-,N/A,Rain,Light Rain,30,2012-10-05 10:52:00
5:55 AM,49.6,44.4,82,30.16,10.0,NNE,6.9,-,0.00,Rain,Light Rain,20,2012-10-05 10:55:00
6:02 AM,50.0,44.6,82,30.17,10.0,North,9.2,-,N/A,Thunderstorm,Overcast,10,2012-10-05 11:02:00
6:24 AM,50.0,44.6,82,30.17,10.0,North,6.9,-,N/A,Rain-Thunderstorm,Light Rain,360,2012-10-05 11:24:00
6:29 AM,48.2,46.4,93,30.17,10.0,North,6.9,-,N/A,Rain-Thunderstorm,Light Thunderstorms and Rain,360,2012-10-05 11:29:00
6:55 AM,47.3,46.4,97,30.30,8.0,North,9.2,-,0.13,Rain,Light Rain,10,2012-10-05 11:55:00
6:57 AM,46.4,46.4,100,30.17,9.0,North,9.2,-,N/A,Rain-Thunderstorm,Light Rain,10,2012-10-05 11:57:00
7:05 AM,46.4,46.4,100,30.17,10.0,NNE,5.8,-,N/A,,Overcast,20,2012-10-05 12:05:00
7:55 AM,46.9,46.8,99,30.18,10.0,NNE,8.1,-,N/A,,Overcast,20,2012-10-05 12:55:00
8:10 AM,46.4,46.4,100,30.17,10.0,NNE,9.2,-,N/A,,Overcast,20,2012-10-05 13:10:00
8:16 AM,46.4,46.4,100,30.17,10.0,NNE,5.8,-,N/A,,Overcast,30,2012-10-05 13:16:00
8:30 AM,46.4,46.4,100,30.17,10.0,NNE,9.2,-,N/A,,Overcast,20,2012-10-05 13:30:00
8:43 AM,46.4,46.4,100,30.17,10.0,NE,8.1,-,N/A,,Overcast,50,2012-10-05 13:43:00
8:46 AM,46.4,46.4,100,30.17,10.0,North,5.8,-,N/A,Rain,Light Rain,10,2012-10-05 13:46:00
8:51 AM,46.4,46.4,100,30.17,10.0,NNE,9.2,-,N/A,Rain,Light Rain,20,2012-10-05 13:51:00
8:52 AM,46.4,46.4,100,30.17,10.0,NNE,8.1,-,N/A,Rain,Light Rain,30,2012-10-05 13:52:00
8:55 AM,46.9,46.8,99,30.17,10.0,Variable,5.8,-,0.01,,Light Drizzle,0,2012-10-05 13:55:00
9:00 AM,46.4,46.4,100,30.17,10.0,NNE,5.8,-,N/A,,Overcast,30,2012-10-05 14:00:00
9:04 AM,46.4,46.4,100,30.17,10.0,NNE,8.1,-,N/A,Rain-Thunderstorm,Light Rain,20,2012-10-05 14:04:00
9:14 AM,46.4,46.4,100,30.19,10.0,North,9.2,-,N/A,Rain-Thunderstorm,Light Thunderstorms and Rain,350,2012-10-05 14:14:00
9:21 AM,46.4,46.4,100,30.17,2.5,NNE,9.2,-,N/A,Rain-Thunderstorm,Heavy Thunderstorms and Rain,20,2012-10-05 14:21:00
9:24 AM,46.4,46.4,100,30.17,2.0,NNE,8.1,-,N/A,Rain-Thunderstorm,Heavy Thunderstorms and Rain,30,2012-10-05 14:24:00
9:41 AM,46.4,46.4,100,30.17,3.0,NNE,8.1,-,N/A,Rain,Light Rain,20,2012-10-05 14:41:00
9:52 AM,46.4,46.4,100,30.17,10.0,North,8.1,-,N/A,Rain,Light Rain,10,2012-10-05 14:52:00
9:55 AM,46.8,46.6,99,30.17,10.0,NNE,9.2,-,0.28,Rain,Light Rain,30,2012-10-05 14:55:00
10:04 AM,46.4,46.4,100,30.18,10.0,North,8.1,-,N/A,,Light Drizzle,10,2012-10-05 15:04:00
10:40 AM,46.4,46.4,100,30.19,10.0,North,9.2,-,N/A,Rain,Light Rain,360,2012-10-05 15:40:00
10:53 AM,46.4,46.4,100,30.18,9.0,NNE,9.2,-,N/A,Rain,Light Rain,20,2012-10-05 15:53:00
10:55 AM,46.8,46.6,99,30.18,8.0,NNE,11.5,-,0.03,Rain,Light Rain,20,2012-10-05 15:55:00
11:03 AM,46.4,46.4,100,30.18,9.0,North,12.7,-,N/A,Rain,Light Rain,360,2012-10-05 16:03:00
11:10 AM,46.4,46.4,100,30.17,10.0,NNE,8.1,-,N/A,Rain,Light Rain,20,2012-10-05 16:10:00
11:38 AM,46.4,46.4,100,30.16,10.0,NNE,9.2,-,N/A,,Light Drizzle,30,2012-10-05 16:38:00
11:40 AM,46.4,46.4,100,30.16,9.0,North,9.2,-,N/A,,Light Drizzle,10,2012-10-05 16:40:00
11:55 AM,46.6,46.2,99,30.16,10.0,NNE,11.5,-,0.00,,Light Drizzle,20,2012-10-05 16:55:00
12:55 PM,45.9,45.7,99,30.14,4.0,NNE,10.4,-,0.01,Rain,Light Rain,20,2012-10-05 17:55:00
1:05 PM,46.4,46.4,100,30.17,3.0,NNW,10.4,-,N/A,Rain-Thunderstorm,Light Thunderstorms and Rain,340,2012-10-05 18:05:00
1:24 PM,46.4,46.4,100,30.14,5.0,North,10.4,-,N/A,Rain-Thunderstorm,Light Rain,10,2012-10-05 18:24:00
1:39 PM,46.4,46.4,100,30.14,10.0,North,11.5,17.3,N/A,,Overcast,10,2012-10-05 18:39:00
1:43 PM,46.4,46.4,100,30.14,10.0,North,9.2,-,N/A,Thunderstorm,Overcast,360,2012-10-05 18:43:00
1:45 PM,46.4,46.4,100,30.15,10.0,North,10.4,-,N/A,Thunderstorm,Thunderstorm,350,2012-10-05 18:45:00
1:52 PM,46.4,44.6,93,30.15,8.0,North,10.4,-,N/A,Rain-Thunderstorm,Thunderstorms and Rain,360,2012-10-05 18:52:00
1:55 PM,45.7,45.5,99,30.16,7.0,North,10.4,-,0.17,Rain-Thunderstorm,Light Thunderstorms and Rain,350,2012-10-05 18:55:00
2:00 PM,46.4,44.6,93,30.17,5.0,North,9.2,-,N/A,Rain-Thunderstorm,Light Rain,350,2012-10-05 19:00:00
2:55 PM,45.1,45.0,99,30.16,10.0,North,12.7,-,0.02,Rain,Light Rain,350,2012-10-05 19:55:00
3:17 PM,44.6,44.6,100,30.17,10.0,North,12.7,18.4,N/A,,Light Drizzle,360,2012-10-05 20:17:00
3:55 PM,44.2,44.1,99,30.18,10.0,NNW,8.1,-,0.01,Rain,Light Rain,340,2012-10-05 20:55:00
4:05 PM,44.6,44.6,100,30.18,10.0,North,9.2,-,N/A,,Overcast,350,2012-10-05 21:05:00
4:16 PM,44.6,42.8,93,30.19,10.0,North,12.7,17.3,N/A,,Overcast,350,2012-10-05 21:16:00
4:55 PM,43.3,42.4,97,30.19,10.0,North,11.5,-,0.00,,Overcast,350,2012-10-05 21:55:00
5:16 PM,42.8,42.8,100,30.21,10.0,North,9.2,-,N/A,,Overcast,350,2012-10-05 22:16:00
5:30 PM,42.8,42.8,100,30.19,10.0,North,13.8,-,N/A,,Overcast,350,2012-10-05 22:30:00
5:33 PM,42.8,42.8,100,30.19,10.0,North,12.7,-,N/A,,Overcast,360,2012-10-05 22:33:00
5:55 PM,43.2,42.1,96,30.21,10.0,North,9.2,-,N/A,,Overcast,360,2012-10-05 22:55:00
6:55 PM,43.0,41.5,95,30.20,10.0,North,4.6,-,N/A,,Overcast,10,2012-10-05 23:55:00
7:55 PM,41.7,41.2,98,30.22,10.0,NNW,8.1,-,N/A,,Scattered Clouds,330,2012-10-06 00:55:00
8:55 PM,39.7,39.4,99,30.23,10.0,Calm,Calm,-,N/A,,Clear,0,2012-10-06 01:55:00
9:55 PM,38.3,38.1,99,30.25,10.0,Calm,Calm,-,N/A,,Clear,0,2012-10-06 02:55:00
10:55 PM,37.0,36.9,99,30.25,10.0,Calm,Calm,-,N/A,,Clear,0,2012-10-06 03:55:00
11:55 PM,36.3,36.1,99,30.25,10.0,NNW,3.5,-,N/A,,Clear,330,2012-10-06 04:55:00